Home   Weather   60°27'N, 26°02'E   Past weeks
Flag for Finland

Past Weather in 60°27'N, 26°02'E, Finland — Yesterday and Last 2 Weeks

Now
70 °F

Sunny.


Feels Like: 70 °F
Forecast: 62 / 50 °F
Wind: 9 mph from Southeast

Location: Helsinki-Vantaa

Current Time: May 19, 2019 at 12:25:42 pm

Latest Report: May 19, 2019 at 11:50 am


Visibility: 10 mi

Pressure: 30.07 "Hg

Humidity: 38%

Dew Point: 43 °F

Location of 60°27'N, 26°02'ELocation

Past Weather in 60°27'N, 26°02'E — Graph

°F

60°27'N, 26°02'E Temperature Yesterday

Maximum temperature yesterday: 70 °F (at 1:20 pm)
Minimum temperature yesterday: 41 °F (at 4:20 am)
Average temperature yesterday: 59 °F

High & Low Weather Summary for the Past Weeks

 TemperatureHumidityPressure
High70 °F (May 18, 1:20 pm)100% (May 4, 7:20 pm)30.45 "Hg (May 4, 7:20 pm)
Low30 °F (May 5, 4:50 am)23% (May 18, 5:20 pm)29.56 "Hg (May 4, 11:20 am)
Average48 °F65%30.05 "Hg
* Reported May 4 11:20 am — May 19 11:20 am, 60°27'N, 26°02'E. Weather by CustomWeather, © 2019

Note: Actual official high and low records may vary slightly from our data, if they occured in-between our weather recording intervals... More about our weather records

Advertising

60°27'N, 26°02'E Weather History for the Previous 24 Hours

Scroll right to see more
 ConditionsComfort  
Time TempWeatherWind HumidityBarometerVisibility
11:20 am
Sun, May 19
68 °FPassing clouds.8 mph43%30.07 "HgN/A
10:50 am68 °FSunny.10 mph43%30.07 "Hg10 mi
10:20 am66 °FPassing clouds.8 mph49%30.07 "HgN/A
9:50 am64 °FSunny.8 mph49%30.07 "Hg10 mi
9:20 am64 °FSunny.9 mph49%30.07 "Hg10 mi
8:50 am63 °FSunny.8 mph56%30.07 "Hg10 mi
8:20 am61 °FSunny.6 mph59%30.07 "Hg10 mi
7:50 am59 °FSunny.5 mph63%30.07 "Hg10 mi
7:20 am59 °FSunny.5 mph63%30.07 "Hg10 mi
6:50 am57 °FSunny.6 mph63%30.07 "Hg10 mi
6:20 am55 °FSunny.5 mph67%30.07 "Hg10 mi
5:50 am52 °FPassing clouds.6 mph72%30.07 "HgN/A
5:20 am48 °FSunny.7 mph76%30.07 "Hg10 mi
4:50 am46 °FSunny.6 mph82%30.07 "Hg10 mi
4:20 am45 °FClear.6 mph81%30.07 "Hg10 mi
3:50 am41 °FClear.5 mph93%30.07 "Hg10 mi
3:20 am43 °FClear.5 mph87%30.07 "Hg10 mi
2:50 am45 °FClear.6 mph81%30.07 "Hg10 mi
2:20 am43 °FClear.6 mph87%30.07 "Hg10 mi
1:50 am45 °FClear.2 mph87%30.09 "Hg10 mi
1:20 am45 °FPassing clouds.5 mph87%30.09 "HgN/A
12:50 am46 °FClear.3 mph82%30.09 "Hg10 mi
12:20 am48 °FClear.3 mph76%30.09 "Hg10 mi
11:50 pm
Sat, May 18
54 °FClear.3 mph58%30.09 "Hg10 mi
11:20 pm61 °FClear.2 mph39%30.09 "Hg10 mi
10:50 pm57 °FClear.1 mph48%30.09 "Hg10 mi
10:20 pm63 °FClear.3 mph37%30.07 "Hg10 mi
9:50 pm63 °FSunny.3 mph39%30.07 "Hg10 mi
9:20 pm64 °FSunny.6 mph34%30.09 "Hg10 mi
8:50 pm66 °FSunny.7 mph32%30.09 "Hg10 mi
8:20 pm68 °FSunny.7 mph28%30.09 "Hg10 mi
7:50 pm68 °FPassing clouds.9 mph28%30.09 "HgN/A
7:20 pm70 °FSunny.9 mph29%30.09 "Hg10 mi
6:50 pm70 °FPassing clouds.10 mph27%30.09 "HgN/A
6:20 pm70 °FSunny.12 mph29%30.12 "Hg10 mi
5:50 pm70 °FPassing clouds.14 mph27%30.12 "HgN/A
5:20 pm70 °FPassing clouds.10 mph23%30.12 "HgN/A
4:50 pm70 °FSunny.13 mph25%30.12 "Hg10 mi
4:20 pm70 °FSunny.10 mph31%30.15 "Hg10 mi
3:50 pm70 °FPassing clouds.13 mph31%30.15 "HgN/A
3:20 pm70 °FSunny.13 mph33%30.15 "Hg10 mi
2:50 pm70 °FPassing clouds.13 mph33%30.15 "HgN/A
2:20 pm70 °FSunny.13 mph35%30.15 "Hg10 mi
1:50 pm70 °FSunny.10 mph35%30.15 "Hg10 mi
1:20 pm70 °FSunny.12 mph35%30.18 "Hg10 mi
12:50 pm68 °FPassing clouds.9 mph38%30.18 "HgN/A
12:20 pm68 °FPassing clouds.8 mph35%30.18 "HgN/A
Weather by CustomWeather, © 2019

See weather overview